MPEC 1995-E10 : 1995 DW1
The following Minor Planet Electronic Circular may be linked-to from your own Web pages, but must not otherwise be redistributed electronically.A form allowing access to any MPEC is at the bottom of this page.


M.P.E.C. 1995-E10 Issued 1995 Mar. 8, 14:17 UT The Minor Planet Electronic Circulars contain information on unusual minor planets and routine data on comets. They are published on behalf of Commission 20 of the International Astronomical Union by the Minor Planet Center, Smithsonian Astrophysical Observatory, Cambridge, MA 02138, U.S.A. MARSDEN@CFA or WILLIAMS@CFA (.HARVARD.EDU, .SPAN or .BITNET) 1995 DW1 Revision to MPEC 1995-E02 Observations: J95D01W C1995 03 06.99778 11 43 55.14 +02 21 17.8 19.6 V 587 J95D01W C1995 03 07.00448 11 43 53.50 +02 21 12.5 587 J95D01W C1995 03 07.66426 11 41 13.48 +02 16 55.5 413 J95D01W C1995 03 07.66680 11 41 12.88 +02 16 54.5 413 Observer details: 413 Siding Spring Observatory. Observers R. H. McNaught, D. J. Asher. Measurer R. H. McNaught. 1.0-m reflector + CCD. 587 Sormano. Observers M. Cavagna, A. Testa. 0.5-m reflector + CCD. Orbital elements: 1995 DW1 Epoch 1995 Feb. 12.0 TT = JDT 2449760.5 Williams M 227.95021 (2000.0) P Q n 0.92853360 Peri. 326.88920 +0.72119839 +0.69093059 a 1.0405692 Node 348.96630 -0.56537121 +0.54547359 e 0.4379920 Incl. 15.10648 -0.40028524 +0.47441910 P 1.06 H 21.0 G 0.15 From 16 observations 1995 Feb. 25-Mar. 7. Ephemeris: 1995 DW1 a,e,i = 1.04, 0.44, 15 q = 0.5848 Date TT R. A. (2000) Decl. Delta r Elong. Phase V 1995 03 04 11 55.13 +02 42.4 0.364 1.346 165.1 10.9 20.1 1995 03 09 11 35.65 +02 06.6 0.333 1.324 174.4 4.2 19.6 1995 03 14 11 12.37 +01 25.3 0.308 1.301 174.3 4.3 19.4 1995 03 19 10 45.98 +00 37.8 0.290 1.276 163.3 12.9 19.6 1995 03 24 10 17.72 -00 14.9 0.279 1.249 151.7 22.2 19.8 1995 03 29 09 49.24 -01 11.0 0.274 1.221 140.0 31.7 20.0 1995 04 03 09 22.19 -02 08.4 0.275 1.191 128.8 40.9 20.2 1995 04 08 08 57.66 -03 05.4 0.280 1.160 118.2 49.5 20.4 1995 04 13 08 36.10 -04 01.0 0.288 1.127 108.4 57.5 20.6 1995 04 18 08 17.33 -04 54.8 0.298 1.093 99.5 64.9 20.9 1995 04 23 08 00.89 -05 46.5 0.308 1.058 91.2 71.9 21.1 Gareth V. Williams M.P.E.C. 1995-E10


Enter an MPEC number in one of the following forms:
- 1997-B01 (the full form)
- J97B01 (the packed version of the full form)
- B01 (the abbreviated form)